Regional Weather Roundup
Issued by NWS

Home | Current Version | Previous Version | Graphics & Text | Print | Product List | Glossary On
Versions: 1 2 3 4 5 6 7 8 9 10 11 12 13 14 15 16 17 18 19 20 21 22 23 24 25 26 27 28 29 30 31 32 33 34 35 36 37 38 39 40 41 42 43 44 45 46 47 48 49 50
000
ASUS43 KBIS 261710
RWRND

NORTH DAKOTA REGIONAL WEATHER ROUNDUP
NATIONAL WEATHER SERVICE BISMARCK ND
1200 PM CDT FRI AUG 26 2016

NOTE: "FAIR" INDICATES FEW OR NO CLOUDS BELOW 12,000 FEET WITH NO
SIGNIFICANT WEATHER AND/OR OBSTRUCTIONS TO VISIBILITY.


NDZ001>003-009>011-017-261800-
NORTHWEST NORTH DAKOTA

CITY           SKY/WX    TMP DP  RH WIND       PRES   REMARKS
WILLISTON      CLOUDY    69  45  41 S6        30.03F
MINOT          MOSUNNY   72  45  37 SW14      30.03S
MINOT AFB      MOSUNNY   73  45  36 SW14G20   30.01F
$$

NDZ018>021-031>035-040>046-261800-
SOUTHWEST NORTH DAKOTA

CITY           SKY/WX    TMP DP  RH WIND       PRES   REMARKS
BISMARCK       CLOUDY    63  50  62 SW7       30.11F
DICKINSON      SUNNY     70  42  36 S13       30.05F
GARRISON         N/A     71  49  45 SW12      30.06F
HETTINGER ARPT SUNNY     71  48  43 S13       30.10F
$$

NDZ004>008-012>016-024-026-027-054-261800-
NORTHEAST NORTH DAKOTA

CITY           SKY/WX    TMP DP  RH WIND       PRES   REMARKS
GRAND FORKS    PTSUNNY   73  54  51 S10       30.05F
GRND FRKS AFB  CLOUDY    75  51  43 S10       30.06F
DEVILS LAKE    CLOUDY    66  54  65 S12       30.07S
$$

NDZ022-023-025-028>030-036>039-047>053-261800-
SOUTHEAST NORTH DAKOTA

CITY           SKY/WX    TMP DP  RH WIND       PRES   REMARKS
FARGO          SUNNY     74  50  42 SW10      30.10F
JAMESTOWN      MOSUNNY   67  51  56 W15       30.10F
$$




USA.gov is the U.S. government's official web portal to all federal, state and local government web resources and services.